Location: Georgenberg
(48.1500°N, 16.2500°E)
Time: 14:33:05
(UTC+01:00)

N. Korean satellite - Pass Details

Date: 01 December 2022
Orbit: 407 x 441 km, 97.3° (Epoch: 05 February)

Event Time Altitude Azimuth Distance (km) Brightness Sun altitude
Rises 16:50:49 0° 188° (S) 2,437 10.6 -7.7°
Reaches altitude 10° 16:52:57 10° 198° (SSW) 1,583 9.8 -8.1°
Maximum altitude 16:56:03 32° 263° (W) 811 8.5 -8.5°
Drops below altitude 10° 16:59:13 10° 329° (NNW) 1,625 9.3 -9.0°
Sets 17:01:27 0° 339° (NNW) 2,517 10.2 -9.4°
